Wetterdaten: Sonntag, 07.09.2014
Datum Zeit Temperatur Luftfeuchte Luftdruck Regen Wind Richtung Richtung Taupunkt Windchill Windben
07.09.2014 00:00 14,0 C 88 % 1017,3 hPa 0,0 l/m 0,0 km/h (0 Bft) SW 225 12,0 C 14,0 C 0,0 km/h (0 Bft)
07.09.2014 00:05 13,9 C 88 % 1017,3 hPa 0,0 l/m 0,0 km/h (0 Bft) SO 135 11,9 C 13,9 C 0,0 km/h (0 Bft)
07.09.2014 00:10 13,9 C 88 % 1017,3 hPa 0,0 l/m 0,0 km/h (0 Bft) W-NW 292 11,9 C 13,9 C 0,0 km/h (0 Bft)
07.09.2014 00:15 13,9 C 88 % 1017,2 hPa 0,0 l/m 0,0 km/h (0 Bft) N-NO 22 11,9 C 13,9 C 0,0 km/h (0 Bft)
07.09.2014 00:20 13,9 C 88 % 1017,2 hPa 0,0 l/m 0,0 km/h (0 Bft) S 180 11,9 C 13,8 C 0,0 km/h (0 Bft)
07.09.2014 00:25 13,9 C 88 % 1017,2 hPa 0,0 l/m 0,6 km/h (0 Bft) NW 315 11,9 C 13,9 C 4,2 km/h (1 Bft)
07.09.2014 00:30 13,8 C 88 % 1017,2 hPa 0,0 l/m 1,1 km/h (1 Bft) W-NW 292 11,8 C 14,0 C 0,0 km/h (0 Bft)
07.09.2014 00:35 13,9 C 88 % 1017,3 hPa 0,0 l/m 0,8 km/h (0 Bft) S-SO 157 11,9 C 14,0 C 0,0 km/h (0 Bft)
07.09.2014 00:40 13,7 C 88 % 1017,3 hPa 0,0 l/m 0,0 km/h (0 Bft) O 90 11,7 C 13,9 C 0,0 km/h (0 Bft)
07.09.2014 00:45 13,6 C 88 % 1017,3 hPa 0,0 l/m 0,0 km/h (0 Bft) NO 45 11,6 C 13,7 C 0,0 km/h (0 Bft)
07.09.2014 00:50 13,5 C 89 % 1017,3 hPa 0,0 l/m 0,0 km/h (0 Bft) O-SO 112 11,7 C 13,5 C 0,0 km/h (0 Bft)
07.09.2014 00:55 13,3 C 89 % 1017,3 hPa 0,0 l/m 0,0 km/h (0 Bft) W 270 11,5 C 13,2 C 0,0 km/h (0 Bft)
07.09.2014 01:00 13,1 C 88 % 1017,3 hPa 0,0 l/m 0,2 km/h (0 Bft) S 180 11,2 C 13,1 C 0,0 km/h (0 Bft)
07.09.2014 01:05 12,9 C 89 % 1017,3 hPa 0,0 l/m 0,2 km/h (0 Bft) S-SO 157 11,1 C 12,8 C 0,0 km/h (0 Bft)
07.09.2014 01:10 12,7 C 89 % 1017,3 hPa 0,0 l/m 0,0 km/h (0 Bft) S-SO 157 10,9 C 12,6 C 0,0 km/h (0 Bft)
07.09.2014 01:15 12,4 C 89 % 1017,4 hPa 0,0 l/m 0,0 km/h (0 Bft) S-SO 157 10,6 C 12,3 C 0,0 km/h (0 Bft)
07.09.2014 01:20 12,3 C 89 % 1017,4 hPa 0,0 l/m 0,0 km/h (0 Bft) S-SO 157 10,5 C 12,2 C 0,0 km/h (0 Bft)
07.09.2014 01:25 12,2 C 89 % 1017,4 hPa 0,0 l/m 0,0 km/h (0 Bft) O-SO 112 10,4 C 12,1 C 0,0 km/h (0 Bft)
07.09.2014 01:28 12,3 C 89 % 1017,4 hPa 0,0 l/m 0,0 km/h (0 Bft) S 180 10,5 C 12,0 C 0,0 km/h (0 Bft)
07.09.2014 01:30 12,3 C 89 % 1017,4 hPa 0,0 l/m 0,0 km/h (0 Bft) S 180 10,5 C 12,0 C 0,0 km/h (0 Bft)
07.09.2014 01:35 12,3 C 89 % 1017,3 hPa 0,0 l/m 0,0 km/h (0 Bft) S-SW 202 10,5 C 12,1 C 0,0 km/h (0 Bft)
07.09.2014 01:40 12,2 C 89 % 1017,3 hPa 0,0 l/m 0,0 km/h (0 Bft) S-SO 157 10,4 C 12,1 C 0,0 km/h (0 Bft)
07.09.2014 01:45 12,2 C 89 % 1017,3 hPa 0,0 l/m 0,0 km/h (0 Bft) S-SW 202 10,4 C 12,1 C 0,0 km/h (0 Bft)
07.09.2014 01:50 12,4 C 89 % 1017,3 hPa 0,0 l/m 0,0 km/h (0 Bft) W 270 10,6 C 12,2 C 0,0 km/h (0 Bft)
07.09.2014 01:55 12,3 C 90 % 1017,2 hPa 0,0 l/m 0,2 km/h (0 Bft) S 180 10,7 C 12,3 C 0,0 km/h (0 Bft)
07.09.2014 02:00 12,2 C 90 % 1017,2 hPa 0,0 l/m 0,2 km/h (0 Bft) S 180 10,6 C 12,2 C 0,0 km/h (0 Bft)
07.09.2014 02:05 12,1 C 90 % 1017,2 hPa 0,0 l/m 0,0 km/h (0 Bft) NW 315 10,5 C 12,2 C 0,0 km/h (0 Bft)
07.09.2014 02:10 12,2 C 91 % 1017,2 hPa 0,0 l/m 0,0 km/h (0 Bft) N-NW 337 10,8 C 12,1 C 0,0 km/h (0 Bft)
07.09.2014 02:15 12,0 C 91 % 1017,5 hPa 0,0 l/m 0,0 km/h (0 Bft) W-SW 247 10,6 C 11,9 C 0,0 km/h (0 Bft)
07.09.2014 02:20 12,1 C 91 % 1017,5 hPa 0,0 l/m 0,0 km/h (0 Bft) S-SO 157 10,7 C 11,9 C 0,0 km/h (0 Bft)
07.09.2014 02:25 11,9 C 91 % 1017,5 hPa 0,0 l/m 0,0 km/h (0 Bft) S 180 10,5 C 12,0 C 0,0 km/h (0 Bft)
07.09.2014 02:30 11,9 C 91 % 1017,5 hPa 0,0 l/m 0,3 km/h (0 Bft) N-NO 22 10,5 C 12,0 C 0,0 km/h (0 Bft)
07.09.2014 02:35 11,9 C 91 % 1017,1 hPa 0,0 l/m 0,8 km/h (0 Bft) N-NW 337 10,5 C 12,0 C 1,8 km/h (1 Bft)
07.09.2014 02:40 11,9 C 91 % 1017,1 hPa 0,0 l/m 1,0 km/h (0 Bft) N-NO 22 10,5 C 12,0 C 0,0 km/h (0 Bft)
07.09.2014 02:45 11,7 C 91 % 1017,1 hPa 0,0 l/m 0,3 km/h (0 Bft) NO 45 10,3 C 11,7 C 0,0 km/h (0 Bft)
07.09.2014 02:50 11,6 C 91 % 1017,1 hPa 0,0 l/m 0,0 km/h (0 Bft) NO 45 10,2 C 11,6 C 0,0 km/h (0 Bft)
07.09.2014 02:55 11,4 C 91 % 1017,1 hPa 0,0 l/m 0,0 km/h (0 Bft) NO 45 10,0 C 11,4 C 0,0 km/h (0 Bft)
07.09.2014 03:00 11,3 C 91 % 1017,1 hPa 0,0 l/m 0,0 km/h (0 Bft) NO 45 9,9 C 11,2 C 0,0 km/h (0 Bft)
07.09.2014 03:05 11,2 C 91 % 1017,1 hPa 0,0 l/m 0,0 km/h (0 Bft) O 90 9,8 C 11,1 C 0,0 km/h (0 Bft)
07.09.2014 03:10 11,2 C 91 % 1017,1 hPa 0,0 l/m 0,0 km/h (0 Bft) O-NO 67 9,8 C 10,9 C 0,0 km/h (0 Bft)
07.09.2014 03:15 11,0 C 91 % 1017,2 hPa 0,0 l/m 0,0 km/h (0 Bft) O-SO 112 9,6 C 10,9 C 0,0 km/h (0 Bft)
07.09.2014 03:20 10,9 C 91 % 1017,2 hPa 0,0 l/m 0,0 km/h (0 Bft) O 90 9,5 C 10,8 C 0,0 km/h (0 Bft)
07.09.2014 03:25 10,9 C 91 % 1017,2 hPa 0,0 l/m 0,0 km/h (0 Bft) W-NW 292 9,5 C 10,9 C 0,0 km/h (0 Bft)
07.09.2014 03:30 11,0 C 91 % 1017,2 hPa 0,0 l/m 0,0 km/h (0 Bft) SO 135 9,6 C 10,8 C 0,0 km/h (0 Bft)
07.09.2014 03:35 10,8 C 91 % 1017,0 hPa 0,0 l/m 0,0 km/h (0 Bft) S-SO 157 9,4 C 10,8 C 0,0 km/h (0 Bft)
07.09.2014 03:40 10,8 C 91 % 1017,0 hPa 0,0 l/m 0,0 km/h (0 Bft) NW 315 9,4 C 10,8 C 0,0 km/h (0 Bft)
07.09.2014 03:45 11,1 C 91 % 1017,0 hPa 0,0 l/m 0,0 km/h (0 Bft) NW 315 9,7 C 10,9 C 0,0 km/h (0 Bft)
07.09.2014 03:50 11,3 C 92 % 1017,0 hPa 0,0 l/m 0,0 km/h (0 Bft) NW 315 10,0 C 11,0 C 0,0 km/h (0 Bft)
07.09.2014 03:55 11,3 C 92 % 1017,1 hPa 0,0 l/m 0,0 km/h (0 Bft) NO 45 10,0 C 11,1 C 0,0 km/h (0 Bft)
07.09.2014 04:00 11,3 C 92 % 1017,1 hPa 0,0 l/m 0,0 km/h (0 Bft) NO 45 10,0 C 11,2 C 0,0 km/h (0 Bft)
07.09.2014 04:05 11,4 C 92 % 1017,1 hPa 0,0 l/m 0,0 km/h (0 Bft) S-SO 157 10,1 C 11,3 C 0,0 km/h (0 Bft)
07.09.2014 04:10 11,4 C 92 % 1017,1 hPa 0,0 l/m 0,0 km/h (0 Bft) N-NW 337 10,1 C 11,3 C 0,0 km/h (0 Bft)
07.09.2014 04:15 11,5 C 92 % 1017,0 hPa 0,0 l/m 0,2 km/h (0 Bft) W-NW 292 10,2 C 11,5 C 0,0 km/h (0 Bft)
07.09.2014 04:20 11,5 C 92 % 1017,0 hPa 0,0 l/m 0,2 km/h (0 Bft) NW 315 10,2 C 11,5 C 0,0 km/h (0 Bft)
07.09.2014 04:25 11,5 C 92 % 1017,0 hPa 0,0 l/m 0,0 km/h (0 Bft) SW 225 10,2 C 11,4 C 0,0 km/h (0 Bft)
07.09.2014 04:30 11,4 C 92 % 1017,0 hPa 0,0 l/m 0,0 km/h (0 Bft) N 360 10,1 C 11,3 C 0,0 km/h (0 Bft)
07.09.2014 04:35 11,5 C 92 % 1017,0 hPa 0,0 l/m 0,0 km/h (0 Bft) N-NW 337 10,2 C 11,3 C 0,0 km/h (0 Bft)
07.09.2014 04:40 11,4 C 92 % 1017,0 hPa 0,0 l/m 0,0 km/h (0 Bft) N-NW 337 10,1 C 11,3 C 0,0 km/h (0 Bft)
07.09.2014 04:45 11,3 C 92 % 1017,0 hPa 0,0 l/m 0,0 km/h (0 Bft) S-SO 157 10,0 C 11,2 C 0,0 km/h (0 Bft)
07.09.2014 04:50 11,4 C 92 % 1017,0 hPa 0,0 l/m 0,0 km/h (0 Bft) S 180 10,1 C 11,1 C 0,0 km/h (0 Bft)
07.09.2014 04:55 11,1 C 92 % 1016,9 hPa 0,0 l/m 0,0 km/h (0 Bft) S 180 9,8 C 11,1 C 0,0 km/h (0 Bft)
07.09.2014 05:00 11,0 C 92 % 1016,9 hPa 0,0 l/m 0,0 km/h (0 Bft) SO 135 9,8 C 11,0 C 0,0 km/h (0 Bft)
07.09.2014 05:05 10,9 C 92 % 1016,9 hPa 0,0 l/m 0,0 km/h (0 Bft) SO 135 9,7 C 10,9 C 0,0 km/h (0 Bft)
07.09.2014 05:10 11,0 C 92 % 1016,9 hPa 0,0 l/m 0,0 km/h (0 Bft) SO 135 9,8 C 10,9 C 0,0 km/h (0 Bft)
07.09.2014 05:15 11,3 C 92 % 1016,9 hPa 0,0 l/m 0,0 km/h (0 Bft) W-SW 247 10,0 C 10,9 C 0,0 km/h (0 Bft)
07.09.2014 05:20 11,2 C 92 % 1016,9 hPa 0,0 l/m 0,2 km/h (0 Bft) W 270 9,9 C 10,9 C 1,6 km/h (1 Bft)
07.09.2014 05:25 10,8 C 92 % 1016,9 hPa 0,0 l/m 0,2 km/h (0 Bft) S-SO 157 9,6 C 10,9 C 0,0 km/h (0 Bft)
07.09.2014 05:30 10,7 C 92 % 1016,9 hPa 0,0 l/m 0,2 km/h (0 Bft) SW 225 9,5 C 10,8 C 0,0 km/h (0 Bft)
07.09.2014 05:35 10,6 C 92 % 1017,0 hPa 0,0 l/m 0,0 km/h (0 Bft) NW 315 9,4 C 10,6 C 0,0 km/h (0 Bft)
07.09.2014 05:40 10,4 C 92 % 1017,0 hPa 0,0 l/m 0,0 km/h (0 Bft) N-NW 337 9,2 C 10,4 C 0,0 km/h (0 Bft)
07.09.2014 05:45 10,3 C 92 % 1017,0 hPa 0,0 l/m 0,0 km/h (0 Bft) S-SO 157 9,1 C 10,3 C 0,0 km/h (0 Bft)
07.09.2014 05:50 10,2 C 92 % 1017,0 hPa 0,0 l/m 0,0 km/h (0 Bft) N-NO 22 9,0 C 10,2 C 0,0 km/h (0 Bft)
07.09.2014 05:55 10,6 C 92 % 1017,0 hPa 0,0 l/m 0,0 km/h (0 Bft) S-SO 157 9,4 C 10,2 C 0,0 km/h (0 Bft)
07.09.2014 06:00 10,6 C 92 % 1017,0 hPa 0,0 l/m 0,0 km/h (0 Bft) S 180 9,4 C 10,3 C 0,0 km/h (0 Bft)
07.09.2014 06:05 10,6 C 92 % 1017,0 hPa 0,0 l/m 0,0 km/h (0 Bft) NW 315 9,4 C 10,4 C 0,0 km/h (0 Bft)
07.09.2014 06:10 10,4 C 92 % 1017,0 hPa 0,0 l/m 0,0 km/h (0 Bft) W-SW 247 9,2 C 10,3 C 0,0 km/h (0 Bft)
07.09.2014 06:15 10,5 C 92 % 1017,0 hPa 0,0 l/m 0,0 km/h (0 Bft) O 90 9,3 C 10,2 C 0,0 km/h (0 Bft)
07.09.2014 06:20 10,4 C 92 % 1017,0 hPa 0,0 l/m 0,0 km/h (0 Bft) SO 135 9,2 C 10,3 C 0,0 km/h (0 Bft)
07.09.2014 06:24 10,6 C 92 % 1017,0 hPa 0,0 l/m 0,0 km/h (0 Bft) SO 135 9,4 C 10,3 C 0,0 km/h (0 Bft)
07.09.2014 06:25 10,6 C 92 % 1017,0 hPa 0,0 l/m 0,0 km/h (0 Bft) SO 135 9,4 C 10,3 C 0,0 km/h (0 Bft)
07.09.2014 06:30 10,4 C 92 % 1017,0 hPa 0,0 l/m 0,0 km/h (0 Bft) O-SO 112 9,2 C 10,3 C 0,0 km/h (0 Bft)
07.09.2014 06:35 10,2 C 92 % 1017,1 hPa 0,0 l/m 0,0 km/h (0 Bft) SO 135 9,0 C 10,2 C 0,0 km/h (0 Bft)
07.09.2014 06:40 10,2 C 92 % 1017,1 hPa 0,0 l/m 0,0 km/h (0 Bft) O-SO 112 9,0 C 10,2 C 0,0 km/h (0 Bft)
07.09.2014 06:45 10,1 C 92 % 1017,1 hPa 0,0 l/m 0,0 km/h (0 Bft) S-SO 157 8,9 C 10,1 C 0,0 km/h (0 Bft)
07.09.2014 06:50 10,3 C 92 % 1017,1 hPa 0,0 l/m 0,0 km/h (0 Bft) S-SO 157 9,1 C 10,2 C 0,0 km/h (0 Bft)
07.09.2014 06:55 10,3 C 92 % 1017,2 hPa 0,0 l/m 0,0 km/h (0 Bft) W-SW 247 9,1 C 10,2 C 0,0 km/h (0 Bft)
07.09.2014 07:00 10,4 C 92 % 1017,2 hPa 0,0 l/m 0,0 km/h (0 Bft) S 180 9,2 C 10,2 C 0,0 km/h (0 Bft)
07.09.2014 07:05 10,4 C 92 % 1017,2 hPa 0,0 l/m 0,0 km/h (0 Bft) S 180 9,2 C 10,2 C 0,0 km/h (0 Bft)
07.09.2014 07:10 10,4 C 92 % 1017,2 hPa 0,0 l/m 0,0 km/h (0 Bft) S 180 9,2 C 10,2 C 0,0 km/h (0 Bft)
07.09.2014 07:15 10,4 C 93 % 1017,3 hPa 0,0 l/m 0,0 km/h (0 Bft) S-SW 202 9,3 C 10,4 C 0,0 km/h (0 Bft)
07.09.2014 07:20 10,5 C 93 % 1017,3 hPa 0,0 l/m 0,0 km/h (0 Bft) S-SO 157 9,4 C 10,4 C 0,0 km/h (0 Bft)
07.09.2014 07:25 10,8 C 93 % 1017,3 hPa 0,0 l/m 0,0 km/h (0 Bft) O-SO 112 9,7 C 10,6 C 0,0 km/h (0 Bft)
07.09.2014 07:30 10,9 C 93 % 1017,3 hPa 0,0 l/m 0,0 km/h (0 Bft) O-NO 67 9,8 C 10,7 C 0,0 km/h (0 Bft)
07.09.2014 07:35 11,1 C 93 % 1017,2 hPa 0,0 l/m 0,0 km/h (0 Bft) O-SO 112 10,0 C 10,9 C 0,0 km/h (0 Bft)
07.09.2014 07:40 11,2 C 93 % 1017,2 hPa 0,0 l/m 0,0 km/h (0 Bft) NO 45 10,1 C 11,1 C 0,0 km/h (0 Bft)
07.09.2014 07:45 11,4 C 93 % 1017,2 hPa 0,0 l/m 0,0 km/h (0 Bft) NO 45 10,3 C 11,2 C 0,0 km/h (0 Bft)
07.09.2014 07:50 11,5 C 93 % 1017,2 hPa 0,0 l/m 0,0 km/h (0 Bft) NW 315 10,4 C 11,4 C 0,0 km/h (0 Bft)
07.09.2014 07:55 11,8 C 93 % 1017,6 hPa 0,0 l/m 0,0 km/h (0 Bft) NW 315 10,7 C 11,6 C 0,0 km/h (0 Bft)
07.09.2014 08:00 11,8 C 93 % 1017,6 hPa 0,0 l/m 0,0 km/h (0 Bft) W-SW 247 10,7 C 11,8 C 0,0 km/h (0 Bft)
07.09.2014 08:05 11,9 C 93 % 1017,6 hPa 0,0 l/m 0,0 km/h (0 Bft) SO 135 10,8 C 12,0 C 0,0 km/h (0 Bft)
07.09.2014 08:10 12,2 C 93 % 1017,6 hPa 0,0 l/m 0,0 km/h (0 Bft) SO 135 11,1 C 12,6 C 0,0 km/h (0 Bft)
07.09.2014 08:15 12,9 C 93 % 1017,6 hPa 0,0 l/m 0,0 km/h (0 Bft) SO 135 11,8 C 13,6 C 0,0 km/h (0 Bft)
07.09.2014 08:20 12,5 C 92 % 1017,6 hPa 0,0 l/m 0,2 km/h (0 Bft) SO 135 11,2 C 13,3 C 0,0 km/h (0 Bft)
07.09.2014 08:25 12,8 C 93 % 1017,6 hPa 0,0 l/m 0,2 km/h (0 Bft) SO 135 11,7 C 13,0 C 0,0 km/h (0 Bft)
07.09.2014 08:30 13,0 C 91 % 1017,6 hPa 0,0 l/m 0,0 km/h (0 Bft) S-SO 157 11,6 C 13,1 C 0,0 km/h (0 Bft)
07.09.2014 08:35 13,3 C 91 % 1017,8 hPa 0,0 l/m 0,0 km/h (0 Bft) NO 45 11,9 C 13,5 C 0,0 km/h (0 Bft)
07.09.2014 08:40 13,3 C 91 % 1017,8 hPa 0,0 l/m 0,0 km/h (0 Bft) SO 135 11,9 C 13,6 C 0,0 km/h (0 Bft)
07.09.2014 08:45 13,8 C 91 % 1017,8 hPa 0,0 l/m 0,0 km/h (0 Bft) S-SO 157 12,4 C 13,8 C 0,0 km/h (0 Bft)
07.09.2014 08:50 13,7 C 91 % 1017,8 hPa 0,0 l/m 0,0 km/h (0 Bft) SO 135 12,3 C 14,5 C 0,0 km/h (0 Bft)
07.09.2014 08:55 13,5 C 91 % 1017,9 hPa 0,0 l/m 0,0 km/h (0 Bft) SO 135 12,1 C 14,5 C 0,0 km/h (0 Bft)
07.09.2014 09:00 13,4 C 91 % 1017,9 hPa 0,0 l/m 0,0 km/h (0 Bft) SO 135 12,0 C 14,4 C 0,0 km/h (0 Bft)
07.09.2014 09:05 13,6 C 91 % 1017,9 hPa 0,0 l/m 0,0 km/h (0 Bft) O-SO 112 12,2 C 14,5 C 0,0 km/h (0 Bft)
07.09.2014 09:10 13,8 C 91 % 1017,9 hPa 0,0 l/m 0,0 km/h (0 Bft) O-SO 112 12,4 C 14,5 C 0,0 km/h (0 Bft)
07.09.2014 09:15 14,3 C 91 % 1017,8 hPa 0,0 l/m 0,0 km/h (0 Bft) S-SO 157 12,8 C 14,7 C 0,0 km/h (0 Bft)
07.09.2014 09:20 14,4 C 91 % 1017,8 hPa 0,0 l/m 0,0 km/h (0 Bft) O-SO 112 12,9 C 15,0 C 0,0 km/h (0 Bft)
07.09.2014 09:25 14,3 C 89 % 1017,8 hPa 0,0 l/m 0,2 km/h (0 Bft) O-SO 112 12,5 C 15,0 C 0,0 km/h (0 Bft)
07.09.2014 09:30 14,6 C 89 % 1017,8 hPa 0,0 l/m 0,2 km/h (0 Bft) S-SO 157 12,8 C 15,0 C 0,0 km/h (0 Bft)
07.09.2014 09:35 15,0 C 89 % 1018,2 hPa 0,0 l/m 0,2 km/h (0 Bft) SO 135 13,2 C 15,2 C 0,0 km/h (0 Bft)
07.09.2014 09:40 15,1 C 89 % 1018,2 hPa 0,0 l/m 0,0 km/h (0 Bft) SO 135 13,3 C 15,5 C 0,0 km/h (0 Bft)
07.09.2014 09:45 15,6 C 89 % 1018,2 hPa 0,0 l/m 0,0 km/h (0 Bft) W 270 13,8 C 16,0 C 0,0 km/h (0 Bft)
07.09.2014 09:50 15,7 C 88 % 1018,2 hPa 0,0 l/m 0,0 km/h (0 Bft) S-SO 157 13,7 C 16,3 C 0,0 km/h (0 Bft)
07.09.2014 09:55 15,8 C 88 % 1018,4 hPa 0,0 l/m 0,0 km/h (0 Bft) S-SW 202 13,8 C 16,6 C 0,0 km/h (0 Bft)
07.09.2014 10:00 16,1 C 87 % 1018,4 hPa 0,0 l/m 0,0 km/h (0 Bft) S-SO 157 13,9 C 17,1 C 0,0 km/h (0 Bft)
07.09.2014 10:05 17,3 C 85 % 1018,4 hPa 0,0 l/m 0,0 km/h (0 Bft) S-SO 157 14,8 C 18,5 C 0,0 km/h (0 Bft)
07.09.2014 10:10 18,8 C 84 % 1018,4 hPa 0,0 l/m 0,0 km/h (0 Bft) S 180 16,0 C 19,9 C 0,0 km/h (0 Bft)
07.09.2014 10:15 20,8 C 76 % 1018,4 hPa 0,0 l/m 0,0 km/h (0 Bft) S-SO 157 16,4 C 23,3 C 2,1 km/h (1 Bft)
07.09.2014 10:20 20,8 C 66 % 1018,4 hPa 0,0 l/m 0,0 km/h (0 Bft) O-SO 112 14,2 C 24,6 C 0,0 km/h (0 Bft)
07.09.2014 10:25 21,2 C 62 % 1018,4 hPa 0,0 l/m 0,2 km/h (0 Bft) SO 135 13,6 C 25,7 C 0,0 km/h (0 Bft)
07.09.2014 10:30 22,0 C 64 % 1018,4 hPa 0,0 l/m 0,2 km/h (0 Bft) SW 225 14,9 C 26,1 C 0,0 km/h (0 Bft)
07.09.2014 10:35 22,2 C 59 % 1018,5 hPa 0,0 l/m 0,0 km/h (0 Bft) N-NO 22 13,8 C 26,9 C 0,0 km/h (0 Bft)
07.09.2014 10:40 22,1 C 58 % 1018,5 hPa 0,0 l/m 0,2 km/h (0 Bft) NO 45 13,4 C 27,0 C 0,0 km/h (0 Bft)
07.09.2014 10:45 23,0 C 57 % 1018,5 hPa 0,0 l/m 0,2 km/h (0 Bft) NW 315 14,0 C 27,4 C 0,0 km/h (0 Bft)
07.09.2014 10:50 22,3 C 51 % 1018,5 hPa 0,0 l/m 0,2 km/h (0 Bft) SO 135 11,7 C 27,8 C 2,9 km/h (1 Bft)
07.09.2014 10:55 22,7 C 53 % 1018,7 hPa 0,0 l/m 0,5 km/h (0 Bft) NO 45 12,6 C 27,7 C 0,0 km/h (0 Bft)
07.09.2014 11:00 23,2 C 50 % 1018,7 hPa 0,0 l/m 1,0 km/h (0 Bft) O-NO 67 12,2 C 27,8 C 2,7 km/h (1 Bft)
07.09.2014 11:05 24,6 C 48 % 1018,7 hPa 0,0 l/m 1,4 km/h (1 Bft) N-NO 22 12,8 C 27,9 C 3,2 km/h (1 Bft)
07.09.2014 11:10 24,3 C 49 % 1018,7 hPa 0,0 l/m 1,6 km/h (1 Bft) NO 45 12,9 C 28,0 C 2,4 km/h (1 Bft)
07.09.2014 11:15 24,4 C 47 % 1018,8 hPa 0,0 l/m 1,9 km/h (1 Bft) N-NO 22 12,3 C 27,8 C 3,4 km/h (1 Bft)
07.09.2014 11:20 25,0 C 48 % 1018,8 hPa 0,0 l/m 1,9 km/h (1 Bft) NO 45 13,2 C 27,9 C 3,4 km/h (1 Bft)
07.09.2014 11:23 24,8 C 48 % 1018,8 hPa 0,0 l/m 1,8 km/h (1 Bft) NW 315 13,0 C 28,2 C 2,1 km/h (1 Bft)
07.09.2014 11:25 24,8 C 48 % 1018,8 hPa 0,0 l/m 1,8 km/h (1 Bft) NW 315 13,0 C 28,2 C 2,1 km/h (1 Bft)
07.09.2014 11:30 25,6 C 47 % 1018,8 hPa 0,0 l/m 1,6 km/h (1 Bft) NW 315 13,4 C 28,5 C 3,5 km/h (1 Bft)
07.09.2014 11:35 25,5 C 45 % 1018,8 hPa 0,0 l/m 1,4 km/h (1 Bft) NO 45 12,7 C 28,6 C 5,3 km/h (1 Bft)
07.09.2014 11:40 26,0 C 44 % 1018,8 hPa 0,0 l/m 2,3 km/h (1 Bft) N-NO 22 12,8 C 28,7 C 3,9 km/h (1 Bft)
07.09.2014 11:45 25,4 C 47 % 1018,8 hPa 0,0 l/m 3,4 km/h (1 Bft) W-NW 292 13,3 C 26,9 C 6,9 km/h (2 Bft)
07.09.2014 11:50 25,7 C 46 % 1018,8 hPa 0,0 l/m 3,7 km/h (1 Bft) N-NO 22 13,2 C 27,1 C 7,6 km/h (2 Bft)
07.09.2014 11:55 25,8 C 45 % 1018,9 hPa 0,0 l/m 3,9 km/h (1 Bft) S 180 13,0 C 27,3 C 8,5 km/h (2 Bft)
07.09.2014 12:00 26,3 C 44 % 1018,9 hPa 0,0 l/m 4,3 km/h (1 Bft) NO 45 13,1 C 27,3 C 3,4 km/h (1 Bft)
07.09.2014 12:05 25,9 C 46 % 1018,9 hPa 0,0 l/m 3,1 km/h (1 Bft) O-SO 112 13,4 C 28,1 C 2,3 km/h (1 Bft)
07.09.2014 12:10 25,7 C 44 % 1018,9 hPa 0,0 l/m 2,6 km/h (1 Bft) N-NO 22 12,5 C 27,6 C 6,1 km/h (2 Bft)
07.09.2014 12:15 23,8 C 48 % 1018,9 hPa 0,0 l/m 3,9 km/h (1 Bft) O 90 12,1 C 27,1 C 4,7 km/h (1 Bft)
07.09.2014 12:20 22,7 C 51 % 1018,9 hPa 0,0 l/m 3,5 km/h (1 Bft) O-SO 112 12,0 C 25,7 C 0,0 km/h (0 Bft)
07.09.2014 12:25 23,0 C 51 % 1018,9 hPa 0,0 l/m 1,6 km/h (1 Bft) W 270 12,3 C 25,1 C 0,0 km/h (0 Bft)
07.09.2014 12:30 23,7 C 52 % 1018,9 hPa 0,0 l/m 0,5 km/h (0 Bft) SO 135 13,2 C 25,0 C 0,0 km/h (0 Bft)
07.09.2014 12:35 25,9 C 46 % 1018,8 hPa 0,0 l/m 0,8 km/h (0 Bft) NW 315 13,4 C 26,3 C 3,9 km/h (1 Bft)
07.09.2014 12:40 24,2 C 49 % 1018,8 hPa 0,0 l/m 1,3 km/h (1 Bft) NW 315 12,8 C 27,0 C 4,2 km/h (1 Bft)
07.09.2014 12:45 23,4 C 52 % 1018,8 hPa 0,0 l/m 1,8 km/h (1 Bft) W 270 13,0 C 26,2 C 2,1 km/h (1 Bft)
07.09.2014 12:50 22,9 C 55 % 1018,8 hPa 0,0 l/m 2,4 km/h (1 Bft) NW 315 13,4 C 25,5 C 3,5 km/h (1 Bft)
07.09.2014 12:55 23,0 C 56 % 1018,7 hPa 0,0 l/m 2,6 km/h (1 Bft) NW 315 13,7 C 24,6 C 1,6 km/h (1 Bft)
07.09.2014 13:00 23,8 C 54 % 1018,7 hPa 0,0 l/m 1,8 km/h (1 Bft) W 270 13,9 C 24,8 C 0,0 km/h (0 Bft)
07.09.2014 13:05 22,8 C 57 % 1018,7 hPa 0,0 l/m 1,4 km/h (1 Bft) NW 315 13,8 C 24,8 C 3,1 km/h (1 Bft)
07.09.2014 13:10 22,8 C 58 % 1018,7 hPa 0,0 l/m 1,8 km/h (1 Bft) W 270 14,1 C 24,6 C 1,8 km/h (1 Bft)
07.09.2014 13:15 22,5 C 59 % 1018,6 hPa 0,0 l/m 1,1 km/h (1 Bft) O-NO 67 14,1 C 24,7 C 3,2 km/h (1 Bft)
07.09.2014 13:20 22,1 C 58 % 1018,6 hPa 0,0 l/m 1,0 km/h (0 Bft) N-NW 337 13,4 C 24,7 C 0,0 km/h (0 Bft)
07.09.2014 13:25 23,0 C 57 % 1018,6 hPa 0,0 l/m 1,4 km/h (1 Bft) O-SO 112 14,0 C 24,8 C 2,4 km/h (1 Bft)
07.09.2014 13:30 24,8 C 52 % 1018,6 hPa 0,0 l/m 1,4 km/h (1 Bft) NO 45 14,3 C 26,2 C 4,7 km/h (1 Bft)
07.09.2014 13:35 25,2 C 47 % 1018,4 hPa 0,0 l/m 3,4 km/h (1 Bft) O-NO 67 13,1 C 27,8 C 3,5 km/h (1 Bft)
07.09.2014 13:40 25,2 C 47 % 1018,4 hPa 0,0 l/m 3,9 km/h (1 Bft) N-NO 22 13,1 C 28,7 C 6,3 km/h (2 Bft)
07.09.2014 13:45 23,3 C 50 % 1018,4 hPa 0,0 l/m 4,5 km/h (1 Bft) O-NO 67 12,3 C 27,3 C 9,0 km/h (2 Bft)
07.09.2014 13:50 22,7 C 54 % 1018,4 hPa 0,0 l/m 4,5 km/h (1 Bft) NO 45 12,9 C 26,1 C 4,8 km/h (1 Bft)
07.09.2014 13:55 22,3 C 56 % 1018,6 hPa 0,0 l/m 2,7 km/h (1 Bft) O-SO 112 13,1 C 25,0 C 1,8 km/h (1 Bft)
07.09.2014 14:00 22,5 C 58 % 1018,6 hPa 0,0 l/m 2,3 km/h (1 Bft) N-NO 22 13,8 C 24,6 C 2,6 km/h (1 Bft)
07.09.2014 14:05 22,8 C 56 % 1018,6 hPa 0,0 l/m 2,6 km/h (1 Bft) NW 315 13,6 C 24,9 C 4,5 km/h (1 Bft)
07.09.2014 14:10 21,8 C 59 % 1018,6 hPa 0,0 l/m 3,4 km/h (1 Bft) N-NO 22 13,4 C 24,1 C 4,8 km/h (1 Bft)
07.09.2014 14:15 20,1 C 69 % 1018,6 hPa 0,0 l/m 3,2 km/h (1 Bft) W-NW 292 14,2 C 21,0 C 0,0 km/h (0 Bft)
07.09.2014 14:20 19,0 C 79 % 1018,6 hPa 0,0 l/m 2,3 km/h (1 Bft) NW 315 15,3 C 19,4 C 0,0 km/h (0 Bft)
07.09.2014 14:25 17,7 C 83 % 1018,6 hPa 0,0 l/m 0,3 km/h (0 Bft) S 180 14,8 C 18,4 C 0,0 km/h (0 Bft)
07.09.2014 14:30 17,4 C 85 % 1018,6 hPa 0,0 l/m 0,0 km/h (0 Bft) S 180 14,8 C 17,9 C 0,0 km/h (0 Bft)
07.09.2014 14:35 17,1 C 86 % 1018,3 hPa 0,0 l/m 0,5 km/h (0 Bft) O-NO 67 14,7 C 17,7 C 0,0 km/h (0 Bft)
07.09.2014 14:40 17,7 C 87 % 1018,3 hPa 0,0 l/m 0,6 km/h (0 Bft) S-SO 157 15,5 C 17,9 C 0,0 km/h (0 Bft)
07.09.2014 14:45 18,6 C 88 % 1018,3 hPa 0,0 l/m 0,2 km/h (0 Bft) SO 135 16,6 C 18,6 C 0,0 km/h (0 Bft)
07.09.2014 14:50 18,8 C 87 % 1018,3 hPa 0,0 l/m 0,0 km/h (0 Bft) S 180 16,6 C 19,1 C 1,6 km/h (1 Bft)
07.09.2014 14:55 19,5 C 86 % 1017,6 hPa 0,0 l/m 0,2 km/h (0 Bft) S-SW 202 17,1 C 19,7 C 2,1 km/h (1 Bft)
07.09.2014 15:00 19,8 C 85 % 1017,6 hPa 0,0 l/m 0,3 km/h (0 Bft) S-SO 157 17,2 C 20,4 C 0,0 km/h (0 Bft)
07.09.2014 15:05 21,1 C 84 % 1017,6 hPa 0,0 l/m 0,2 km/h (0 Bft) S-SO 157 18,3 C 22,3 C 0,0 km/h (0 Bft)
07.09.2014 15:10 21,7 C 81 % 1017,6 hPa 0,0 l/m 0,2 km/h (0 Bft) NO 45 18,3 C 23,6 C 0,0 km/h (0 Bft)
07.09.2014 15:15 22,0 C 74 % 1017,6 hPa 0,0 l/m 0,5 km/h (0 Bft) NO 45 17,1 C 25,0 C 3,4 km/h (1 Bft)
07.09.2014 15:20 22,4 C 76 % 1017,6 hPa 0,0 l/m 0,5 km/h (0 Bft) S 180 18,0 C 25,2 C 2,3 km/h (1 Bft)
07.09.2014 15:25 22,7 C 74 % 1017,6 hPa 0,0 l/m 0,5 km/h (0 Bft) O-SO 112 17,8 C 25,9 C 0,0 km/h (0 Bft)
07.09.2014 15:30 22,9 C 75 % 1017,6 hPa 0,0 l/m 0,2 km/h (0 Bft) SO 135 18,2 C 27,1 C 3,2 km/h (1 Bft)
07.09.2014 15:35 22,7 C 73 % 1017,8 hPa 0,0 l/m 0,3 km/h (0 Bft) S-SO 157 17,6 C 27,6 C 0,0 km/h (0 Bft)
07.09.2014 15:40 22,6 C 66 % 1017,8 hPa 0,0 l/m 1,0 km/h (0 Bft) O-SO 112 15,9 C 27,8 C 3,9 km/h (1 Bft)
07.09.2014 15:45 22,6 C 69 % 1017,8 hPa 0,0 l/m 0,8 km/h (0 Bft) O-NO 67 16,6 C 28,3 C 0,0 km/h (0 Bft)
07.09.2014 15:50 22,9 C 69 % 1017,8 hPa 0,0 l/m 0,6 km/h (0 Bft) W-SW 247 16,9 C 28,8 C 0,0 km/h (0 Bft)
07.09.2014 15:55 23,9 C 69 % 1018,1 hPa 0,0 l/m 1,8 km/h (1 Bft) N-NO 22 17,9 C 29,3 C 7,1 km/h (2 Bft)
07.09.2014 16:00 24,1 C 66 % 1018,1 hPa 0,0 l/m 3,4 km/h (1 Bft) NO 45 17,3 C 28,3 C 3,7 km/h (1 Bft)
07.09.2014 16:05 22,3 C 69 % 1018,1 hPa 0,0 l/m 3,9 km/h (1 Bft) O-NO 67 16,3 C 26,8 C 3,2 km/h (1 Bft)
07.09.2014 16:10 21,5 C 76 % 1018,1 hPa 0,0 l/m 2,7 km/h (1 Bft) SO 135 17,1 C 25,4 C 4,0 km/h (1 Bft)
07.09.2014 16:15 21,6 C 76 % 1018,1 hPa 0,0 l/m 1,8 km/h (1 Bft) S 180 17,2 C 23,8 C 2,1 km/h (1 Bft)
07.09.2014 16:20 22,3 C 76 % 1018,1 hPa 0,0 l/m 1,4 km/h (1 Bft) S 180 17,9 C 24,6 C 2,3 km/h (1 Bft)
07.09.2014 16:23 23,1 C 74 % 1018,1 hPa 0,0 l/m 0,8 km/h (0 Bft) S 180 18,2 C 26,1 C 2,7 km/h (1 Bft)
07.09.2014 16:25 23,1 C 74 % 1018,1 hPa 0,0 l/m 0,8 km/h (0 Bft) S 180 18,2 C 26,1 C 2,7 km/h (1 Bft)
07.09.2014 16:30 23,3 C 64 % 1018,1 hPa 0,0 l/m 1,3 km/h (1 Bft) SO 135 16,1 C 27,1 C 4,5 km/h (1 Bft)
07.09.2014 16:35 23,8 C 59 % 1017,9 hPa 0,0 l/m 1,6 km/h (1 Bft) O 90 15,3 C 28,3 C 5,1 km/h (1 Bft)
07.09.2014 16:40 23,5 C 58 % 1017,9 hPa 0,0 l/m 2,3 km/h (1 Bft) NO 45 14,7 C 28,7 C 6,1 km/h (2 Bft)
07.09.2014 16:45 22,8 C 58 % 1017,9 hPa 0,0 l/m 3,2 km/h (1 Bft) O-NO 67 14,1 C 28,7 C 2,7 km/h (1 Bft)
07.09.2014 16:50 22,5 C 59 % 1017,9 hPa 0,0 l/m 2,9 km/h (1 Bft) SO 135 14,1 C 28,2 C 7,1 km/h (2 Bft)
07.09.2014 16:55 22,2 C 64 % 1018,2 hPa 0,0 l/m 1,4 km/h (1 Bft) S-SO 157 15,1 C 26,9 C 2,7 km/h (1 Bft)
07.09.2014 17:00 22,2 C 60 % 1018,2 hPa 0,0 l/m 1,1 km/h (1 Bft) SO 135 14,1 C 27,2 C 2,9 km/h (1 Bft)
07.09.2014 17:05 21,9 C 63 % 1018,2 hPa 0,0 l/m 1,4 km/h (1 Bft) SO 135 14,5 C 27,0 C 0,0 km/h (0 Bft)
07.09.2014 17:10 21,4 C 64 % 1018,2 hPa 0,0 l/m 1,6 km/h (1 Bft) O-SO 112 14,3 C 25,6 C 0,0 km/h (0 Bft)
07.09.2014 17:15 21,0 C 65 % 1018,1 hPa 0,0 l/m 0,8 km/h (0 Bft) S-SW 202 14,2 C 24,2 C 0,0 km/h (0 Bft)
07.09.2014 17:20 20,9 C 65 % 1018,1 hPa 0,0 l/m 0,3 km/h (0 Bft) S-SO 157 14,1 C 23,7 C 0,0 km/h (0 Bft)
07.09.2014 17:25 21,1 C 66 % 1018,1 hPa 0,0 l/m 0,2 km/h (0 Bft) SO 135 14,5 C 23,3 C 2,4 km/h (1 Bft)
07.09.2014 17:30 21,4 C 68 % 1018,1 hPa 0,0 l/m 0,2 km/h (0 Bft) O-SO 112 15,2 C 24,0 C 0,0 km/h (0 Bft)
07.09.2014 17:35 21,6 C 66 % 1018,0 hPa 0,0 l/m 1,4 km/h (1 Bft) O-NO 67 15,0 C 24,8 C 3,2 km/h (1 Bft)
07.09.2014 17:40 21,3 C 64 % 1018,0 hPa 0,0 l/m 2,1 km/h (1 Bft) NO 45 14,2 C 25,0 C 7,7 km/h (2 Bft)
07.09.2014 17:45 20,8 C 67 % 1018,0 hPa 0,0 l/m 2,1 km/h (1 Bft) S-SO 157 14,4 C 24,0 C 0,0 km/h (0 Bft)
07.09.2014 17:50 20,7 C 67 % 1018,0 hPa 0,0 l/m 1,9 km/h (1 Bft) O-SO 112 14,3 C 23,8 C 0,0 km/h (0 Bft)
07.09.2014 17:55 20,4 C 69 % 1018,2 hPa 0,0 l/m 1,3 km/h (1 Bft) SO 135 14,5 C 23,3 C 2,4 km/h (1 Bft)
07.09.2014 18:00 20,4 C 69 % 1018,2 hPa 0,0 l/m 1,3 km/h (1 Bft) SO 135 14,5 C 23,5 C 0,0 km/h (0 Bft)
07.09.2014 18:05 20,3 C 70 % 1018,2 hPa 0,0 l/m 0,6 km/h (0 Bft) SO 135 14,6 C 24,3 C 0,0 km/h (0 Bft)
07.09.2014 18:10 20,1 C 71 % 1018,2 hPa 0,0 l/m 0,3 km/h (0 Bft) SW 225 14,7 C 24,9 C 0,0 km/h (0 Bft)
07.09.2014 18:15 19,9 C 71 % 1018,1 hPa 0,0 l/m 0,3 km/h (0 Bft) S-SW 202 14,5 C 25,3 C 0,0 km/h (0 Bft)
07.09.2014 18:20 19,6 C 72 % 1018,1 hPa 0,0 l/m 0,6 km/h (0 Bft) S-SO 157 14,4 C 24,9 C 0,0 km/h (0 Bft)
07.09.2014 18:25 19,3 C 72 % 1018,1 hPa 0,0 l/m 0,3 km/h (0 Bft) S 180 14,1 C 23,9 C 0,0 km/h (0 Bft)
07.09.2014 18:30 19,1 C 72 % 1018,1 hPa 0,0 l/m 0,3 km/h (0 Bft) S 180 13,9 C 23,6 C 0,0 km/h (0 Bft)
07.09.2014 18:35 18,9 C 73 % 1018,1 hPa 0,0 l/m 0,6 km/h (0 Bft) O-SO 112 13,9 C 23,2 C 1,8 km/h (1 Bft)
07.09.2014 18:40 18,7 C 74 % 1018,1 hPa 0,0 l/m 0,5 km/h (0 Bft) S 180 14,0 C 22,6 C 0,0 km/h (0 Bft)
07.09.2014 18:45 18,3 C 75 % 1018,1 hPa 0,0 l/m 0,3 km/h (0 Bft) SO 135 13,8 C 21,5 C 0,0 km/h (0 Bft)
07.09.2014 18:50 18,1 C 76 % 1018,1 hPa 0,0 l/m 0,2 km/h (0 Bft) S 180 13,8 C 20,9 C 0,0 km/h (0 Bft)
07.09.2014 18:55 17,8 C 77 % 1017,9 hPa 0,0 l/m 0,0 km/h (0 Bft) SO 135 13,7 C 19,9 C 0,0 km/h (0 Bft)
07.09.2014 19:00 17,7 C 77 % 1017,9 hPa 0,0 l/m 0,0 km/h (0 Bft) S-SO 157 13,6 C 19,6 C 0,0 km/h (0 Bft)
07.09.2014 19:05 17,5 C 78 % 1017,9 hPa 0,0 l/m 0,0 km/h (0 Bft) S-SO 157 13,6 C 19,2 C 0,0 km/h (0 Bft)
07.09.2014 19:10 17,4 C 78 % 1017,9 hPa 0,0 l/m 0,0 km/h (0 Bft) S-SO 157 13,5 C 18,9 C 0,0 km/h (0 Bft)
07.09.2014 19:15 16,7 C 79 % 1017,9 hPa 0,0 l/m 0,0 km/h (0 Bft) S-SO 157 13,0 C 18,4 C 0,0 km/h (0 Bft)
07.09.2014 19:20 16,5 C 79 % 1017,9 hPa 0,0 l/m 0,0 km/h (0 Bft) S 180 12,8 C 18,1 C 0,0 km/h (0 Bft)
07.09.2014 19:25 16,1 C 80 % 1017,9 hPa 0,0 l/m 0,0 km/h (0 Bft) S 180 12,6 C 17,6 C 0,0 km/h (0 Bft)
07.09.2014 19:30 16,0 C 80 % 1017,9 hPa 0,0 l/m 0,0 km/h (0 Bft) S 180 12,5 C 17,2 C 0,0 km/h (0 Bft)
07.09.2014 19:35 16,0 C 81 % 1018,1 hPa 0,0 l/m 0,0 km/h (0 Bft) S 180 12,7 C 16,7 C 0,0 km/h (0 Bft)
07.09.2014 19:40 15,7 C 82 % 1018,1 hPa 0,0 l/m 0,0 km/h (0 Bft) S 180 12,6 C 16,4 C 0,0 km/h (0 Bft)
07.09.2014 19:45 15,5 C 83 % 1018,1 hPa 0,0 l/m 0,0 km/h (0 Bft) S 180 12,6 C 15,9 C 0,0 km/h (0 Bft)
07.09.2014 19:50 15,4 C 83 % 1018,1 hPa 0,0 l/m 0,0 km/h (0 Bft) S-SO 157 12,5 C 15,6 C 0,0 km/h (0 Bft)
07.09.2014 19:55 15,2 C 83 % 1018,2 hPa 0,0 l/m 0,2 km/h (0 Bft) S-SO 157 12,3 C 15,3 C 0,0 km/h (0 Bft)
07.09.2014 20:00 15,1 C 83 % 1018,2 hPa 0,0 l/m 0,2 km/h (0 Bft) S 180 12,2 C 15,1 C 0,0 km/h (0 Bft)
07.09.2014 20:05 14,9 C 84 % 1018,2 hPa 0,0 l/m 0,0 km/h (0 Bft) S 180 12,2 C 15,0 C 0,0 km/h (0 Bft)
07.09.2014 20:10 14,9 C 85 % 1018,2 hPa 0,0 l/m 0,0 km/h (0 Bft) S 180 12,4 C 14,8 C 0,0 km/h (0 Bft)
07.09.2014 20:15 14,5 C 85 % 1018,2 hPa 0,0 l/m 0,0 km/h (0 Bft) S 180 12,0 C 14,5 C 0,0 km/h (0 Bft)
07.09.2014 20:20 14,3 C 85 % 1018,2 hPa 0,0 l/m 0,0 km/h (0 Bft) S-SO 157 11,8 C 14,3 C 0,0 km/h (0 Bft)
07.09.2014 20:25 14,2 C 85 % 1018,2 hPa 0,0 l/m 0,2 km/h (0 Bft) W-SW 247 11,7 C 14,1 C 0,0 km/h (0 Bft)
07.09.2014 20:30 14,1 C 85 % 1018,2 hPa 0,0 l/m 0,2 km/h (0 Bft) W-NW 292 11,6 C 14,1 C 0,0 km/h (0 Bft)
07.09.2014 20:35 14,2 C 86 % 1018,5 hPa 0,0 l/m 0,2 km/h (0 Bft) SW 225 11,9 C 14,1 C 0,0 km/h (0 Bft)
07.09.2014 20:40 14,1 C 86 % 1018,5 hPa 0,0 l/m 0,2 km/h (0 Bft) SW 225 11,8 C 14,1 C 0,0 km/h (0 Bft)
07.09.2014 20:45 13,9 C 86 % 1018,5 hPa 0,0 l/m 0,0 km/h (0 Bft) S-SO 157 11,6 C 14,0 C 0,0 km/h (0 Bft)
07.09.2014 20:50 13,8 C 87 % 1018,5 hPa 0,0 l/m 0,0 km/h (0 Bft) O 90 11,7 C 13,9 C 0,0 km/h (0 Bft)
07.09.2014 20:55 13,7 C 87 % 1018,6 hPa 0,0 l/m 0,2 km/h (0 Bft) S 180 11,6 C 13,9 C 0,0 km/h (0 Bft)
07.09.2014 21:00 13,6 C 87 % 1018,6 hPa 0,0 l/m 0,0 km/h (0 Bft) S 180 11,5 C 13,8 C 0,0 km/h (0 Bft)
07.09.2014 21:05 13,5 C 87 % 1018,6 hPa 0,0 l/m 0,0 km/h (0 Bft) W 270 11,4 C 13,7 C 0,0 km/h (0 Bft)
07.09.2014 21:10 13,4 C 87 % 1018,6 hPa 0,0 l/m 0,0 km/h (0 Bft) NW 315 11,3 C 13,7 C 0,0 km/h (0 Bft)
07.09.2014 21:15 13,4 C 87 % 1018,6 hPa 0,0 l/m 0,2 km/h (0 Bft) NW 315 11,3 C 13,6 C 2,3 km/h (1 Bft)
07.09.2014 21:20 13,5 C 88 % 1018,6 hPa 0,0 l/m 0,3 km/h (0 Bft) S 180 11,6 C 13,6 C 0,0 km/h (0 Bft)
07.09.2014 21:23 13,5 C 88 % 1018,6 hPa 0,0 l/m 0,3 km/h (0 Bft) NW 315 11,6 C 13,6 C 0,0 km/h (0 Bft)
07.09.2014 21:25 13,5 C 88 % 1018,6 hPa 0,0 l/m 0,3 km/h (0 Bft) NW 315 11,6 C 13,6 C 0,0 km/h (0 Bft)
07.09.2014 21:30 13,3 C 88 % 1018,6 hPa 0,0 l/m 0,3 km/h (0 Bft) W 270 11,4 C 13,5 C 0,0 km/h (0 Bft)
07.09.2014 21:35 13,3 C 88 % 1018,7 hPa 0,0 l/m 0,3 km/h (0 Bft) W 270 11,4 C 13,4 C 0,0 km/h (0 Bft)
07.09.2014 21:40 13,3 C 88 % 1018,7 hPa 0,0 l/m 0,2 km/h (0 Bft) W-SW 247 11,4 C 13,3 C 0,0 km/h (0 Bft)
07.09.2014 21:45 13,0 C 88 % 1018,7 hPa 0,0 l/m 0,0 km/h (0 Bft) W 270 11,1 C 13,2 C 0,0 km/h (0 Bft)
07.09.2014 21:50 13,0 C 88 % 1018,7 hPa 0,0 l/m 0,0 km/h (0 Bft) W-NW 292 11,1 C 13,1 C 0,0 km/h (0 Bft)
07.09.2014 21:55 12,9 C 89 % 1018,6 hPa 0,0 l/m 0,0 km/h (0 Bft) N 360 11,1 C 13,0 C 0,0 km/h (0 Bft)
07.09.2014 22:00 12,8 C 89 % 1018,6 hPa 0,0 l/m 0,0 km/h (0 Bft) W-SW 247 11,0 C 13,0 C 0,0 km/h (0 Bft)
07.09.2014 22:05 12,9 C 89 % 1018,6 hPa 0,0 l/m 0,0 km/h (0 Bft) S-SO 157 11,1 C 12,9 C 0,0 km/h (0 Bft)
07.09.2014 22:10 12,9 C 89 % 1018,6 hPa 0,0 l/m 0,0 km/h (0 Bft) SW 225 11,1 C 12,9 C 0,0 km/h (0 Bft)
07.09.2014 22:15 12,7 C 89 % 1018,6 hPa 0,0 l/m 0,2 km/h (0 Bft) S 180 10,9 C 12,7 C 3,4 km/h (1 Bft)
07.09.2014 22:20 12,8 C 89 % 1018,6 hPa 0,0 l/m 0,3 km/h (0 Bft) NW 315 11,0 C 12,8 C 0,0 km/h (0 Bft)
07.09.2014 22:25 12,5 C 89 % 1018,6 hPa 0,0 l/m 0,2 km/h (0 Bft) NW 315 10,7 C 12,7 C 0,0 km/h (0 Bft)
07.09.2014 22:30 12,5 C 89 % 1018,6 hPa 0,0 l/m 0,0 km/h (0 Bft) NW 315 10,7 C 12,8 C 0,0 km/h (0 Bft)
07.09.2014 22:35 12,5 C 89 % 1018,6 hPa 0,0 l/m 0,0 km/h (0 Bft) W-SW 247 10,7 C 12,7 C 0,0 km/h (0 Bft)
07.09.2014 22:40 12,5 C 89 % 1018,6 hPa 0,0 l/m 0,0 km/h (0 Bft) S 180 10,7 C 12,6 C 0,0 km/h (0 Bft)
07.09.2014 22:45 12,6 C 89 % 1018,6 hPa 0,0 l/m 0,0 km/h (0 Bft) S 180 10,8 C 12,5 C 0,0 km/h (0 Bft)
07.09.2014 22:50 12,4 C 89 % 1018,6 hPa 0,0 l/m 0,0 km/h (0 Bft) W 270 10,6 C 12,5 C 0,0 km/h (0 Bft)
07.09.2014 22:55 12,5 C 89 % 1018,4 hPa 0,0 l/m 0,0 km/h (0 Bft) N-NW 337 10,7 C 12,4 C 0,0 km/h (0 Bft)
07.09.2014 23:00 12,4 C 90 % 1018,4 hPa 0,0 l/m 0,0 km/h (0 Bft) N-NO 22 10,8 C 12,4 C 0,0 km/h (0 Bft)
07.09.2014 23:05 12,3 C 90 % 1018,4 hPa 0,0 l/m 0,0 km/h (0 Bft) O-NO 67 10,7 C 12,3 C 0,0 km/h (0 Bft)
07.09.2014 23:10 12,1 C 90 % 1018,4 hPa 0,0 l/m 0,0 km/h (0 Bft) O 90 10,5 C 12,2 C 0,0 km/h (0 Bft)
07.09.2014 23:15 12,0 C 90 % 1018,7 hPa 0,0 l/m 0,0 km/h (0 Bft) O-SO 112 10,4 C 12,0 C 0,0 km/h (0 Bft)
07.09.2014 23:20 12,0 C 90 % 1018,7 hPa 0,0 l/m 0,0 km/h (0 Bft) S 180 10,4 C 11,9 C 0,0 km/h (0 Bft)
07.09.2014 23:25 12,3 C 91 % 1018,7 hPa 0,0 l/m 0,2 km/h (0 Bft) W-SW 247 10,9 C 11,9 C 2,4 km/h (1 Bft)
07.09.2014 23:30 12,3 C 91 % 1018,7 hPa 0,0 l/m 0,6 km/h (0 Bft) S-SW 202 10,9 C 12,0 C 0,0 km/h (0 Bft)
07.09.2014 23:35 12,4 C 91 % 1018,6 hPa 0,0 l/m 0,6 km/h (0 Bft) W-NW 292 11,0 C 12,1 C 0,0 km/h (0 Bft)
07.09.2014 23:40 12,3 C 91 % 1018,6 hPa 0,0 l/m 0,2 km/h (0 Bft) W 270 10,9 C 12,2 C 1,8 km/h (1 Bft)
07.09.2014 23:45 12,2 C 91 % 1018,6 hPa 0,0 l/m 0,5 km/h (0 Bft) NW 315 10,8 C 12,3 C 1,8 km/h (1 Bft)
07.09.2014 23:50 12,1 C 91 % 1018,6 hPa 0,0 l/m 0,5 km/h (0 Bft) NW 315 10,7 C 12,3 C 0,0 km/h (0 Bft)
07.09.2014 23:55 12,0 C 91 % 1018,6 hPa 0,0 l/m 0,2 km/h (0 Bft) S-SW 202 10,6 C 12,1 C 0,0 km/h (0 Bft)
_ Min-Zeit 06:45 12:10 05:30 - 23:20 - - 06:45 06:45 23:55
Minimum _ 10,1 C 44 % 1016,9 hPa - 0,0 km/h (0 Bft) - - 8,9 C 10,1 C 0,0 km/h (0 Bft)
_ Max-Zeit 12:00 08:25 12:30 23:55 13:50 - - 15:10 15:55 13:45
Maximum _ 26,3 C 93 % 1018,9 hPa 0,0 l/m 4,5 km/h
NO (1 Bft)
- - 18,3 C 29,3 C 9,0 km/h
O-NO (2 Bft)
Durchschnitt _ 16,1 C 80 % 1017,9 hPa #0,0 l/m 0,6 km/h (0 Bft) N-NO - 12,3 C 17,3 C 0,9 km/h (0 Bft)